Regional Weather Roundup
Issued by NWS Charleston, SC

Current Version | Previous Version | Graphics & Text | Print | Product List | Glossary On
Versions: 1 2 3 4 5 6 7 8 9 10 11 12 13 14 15 16 17 18 19 20 21 22 23 24 25 26 27 28 29 30 31 32 33 34 35 36 37 38 39 40 41 42 43 44 45 46 47 48 49 50
000
ASUS42 KCHS 271911
RWRCHS

REGIONAL WEATHER ROUNDUP
NATIONAL WEATHER SERVICE CHARLESTON SC
300 PM EDT FRI MAR 27 2015

NOTE: "FAIR" INDICATES FEW OR NO CLOUDS BELOW 12,000 FEET WITH NO
SIGNIFICANT WEATHER AND/OR OBSTRUCTIONS TO VISIBILITY.

NOT ALL STATIONS ARE QUALITY CONTROLLED BY THE NATIONAL
WEATHER SERVICE. USE DATA WITH CAUTION...ESPECIALLY
DEWPOINT OBSERVATIONS.

SCZ027-030-031-034>040-042>050-272000-
...SOUTHEAST SOUTH CAROLINA...

CITY           SKY/WX    TMP DP  RH WIND       PRES   REMARKS
N CHARLESTON   CLOUDY    71  61  70 SW20G25   29.64F
WATERFRONT PRK   N/A     68 N/A N/A S18         N/A
MOUNT PLEASANT FAIR      72  63  73 S13       29.63F
PINOPOLIS        N/A     70  63  78 SW7       29.57F
MONCKS CORNER  TSTM      64  61  88 SW6       29.64F
SUMMERVILLE    CLOUDY    64  64 100 SW6       29.66S
BEAUFORT MCAS  TSTM      65  61  87 W10       29.66F FOG
BEAUFORT ARPT  MOCLDY    72  63  73 S14       29.65F
HILTON HEAD IS PTSUNNY   70  63  78 SW8G17    29.67F
WALTERBORO     MOCLDY    64  63  94 SW9       29.66F
ALLENDALE      MOCLDY    70  55  60 W10       29.66F

...SOUTHERN MIDLANDS AND PEE DEE...

CITY           SKY/WX    TMP DP  RH WIND       PRES   REMARKS
GEORGETOWN     NOT AVBL
KINGSTREE      NOT AVBL
ORANGEBURG     CLOUDY    57  52  83 N14G21    29.69R
BARNWELL       MOCLDY    70  54  56 W9        29.69R
AIKEN          CLOUDY    55  48  76 N7        29.75S
MANNING        RAIN      52  46  82 N18       29.68R
COLUMBIA       CLOUDY    55  46  71 N10       29.72R
SUMTER         CLOUDY    52  48  86 N12       29.70R
FLORENCE       RAIN      50  47  89 NE12      29.70S FOG
MYRTLE BEACH   LGT RAIN  66  57  72 N18G24    29.66S
N MYRTLE BEACH LGT RAIN  59  53  80 N10       29.65R

$$

GAZ063-065-086>088-099>101-113>116-118-119-134>141-150-272000-
...SOUTHEAST GEORGIA...

CITY           SKY/WX    TMP DP  RH WIND       PRES   REMARKS
SAVANNAH ARPT  TSTM      64  63  94 W14       29.68S FOG
HUNTER AAF     TSTM      68  63  83 W21G35    29.69R
FORT STEWART   LGT RAIN  66  63  88 W13       29.69S
STATESBORO     FAIR      66  55  69 W17G25    29.71S
SYLVANIA       FAIR      67  57  69 NW21      29.70S
CLAXTON        MOCLDY    64  57  77 W18G26    29.73R

...CSRA...CENTRAL AND FAR SOUTHEAST GEORGIA...

CITY           SKY/WX    TMP DP  RH WIND       PRES   REMARKS
THOMSON        PTSUNNY   61  48  63 W12G17    29.80S
AUGUSTA-BUSH   CLOUDY    66  48  52 NW15G24   29.70F
AUGUSTA-DANIEL PTSUNNY   65  47  52 W10G20    29.72S
SWAINSBORO     MOCLDY    64  37  36 W12G21    29.75F
VIDALIA        PTSUNNY   63  52  67 W14G25    29.76S
EASTMAN        CLOUDY    61  49  65 W10G16    29.83F
HAZLEHURST     MOCLDY    61  52  72 W7G22     29.77F
ALMA           CLOUDY    62  54  74 NW15G26   29.77R
WAYCROSS       CLOUDY    69  64  83 NW15G23   29.75R
JESUP          LGT RAIN  68  63  83 NW20G25   29.73R
BAXLEY         CLOUDY    63  55  77 NW16G25   29.76S
BRUNSWICK      PTSUNNY   73  61  64 W12G20    29.71F
SAINT SIMONS   CLOUDY    73  60  63 W14       29.70F

$$

SCZ027-028-034-036>038-045-046-048>050-GAZ119-141-272000-
...LAKE AND SUPPLEMENTAL COASTAL OBSERVATIONS...

STATION/POSITION TIME  TEMP    WIND        PRES    WAVE   SWELL
                       AIR SEA DIR/SP/G            HT/PER HT/PER/DIR
                 (UTC) (F)     (DEG/KT/KT) (MB)    (FT/S) (FT/S/D)
UPR LAKE MARION  NOT AVBL
WINYAH BAY       NOT AVBL
LAKE MURRAY      1800   54     360/  6/ 10 1006.1F
ACE BASIN NERRS  NOT AVBL
FORT PULASKI     1800      60  230/  9/ 16 1005.9F
SAPELO ISLAND    1800   70     230/ 15     1006.0F

$$

ANZ835-935-AMZ111-154-330-350-352-354-370-450-454-472-272000-
...C-MAN AND BUOY OBSERVATIONS...

STATION/POSITION TIME  TEMP    WIND        PRES    WAVE   SWELL
                       AIR SEA DIR/SP/G            HT/PER HT/PER/DIR
                 (UTC) (F)     (DEG/KT/KT) (MB)    (FT/S) (FT/S/D)
BUOY 41004       1850   68 70  220/ 23/ 27 1003.6F   6/ 6   2/ 8
BUOY 41008       1850   64 61  200/ 14/ 16 1005.6F   3/ 8   2/100/ 8
FOLLY BEACH CMAN 1900   63     210/ 19/ 21 1004.0F
CAPERS NEARSHORE 1800   63     220/ 17/ 21   N/A
FRIPP NEARSHORE  1800   63     220/ 16/ 17 1005.3F


STATION/POSITION TIME  TEMP    WIND        PRES    WAVE   SWELL
                       AIR SEA DIR/SP/G            HT/PER HT/PER/DIR
                 (UTC) (F)     (DEG/KT/KT) (MB)    (FT/S) (FT/S/D)
5E ST. MARYS GA  1821      63                N/A     3/ 8
FRYING PAN BUOY  1850   67 66  230/ 23/ 25 1003.8F   7/ 6
BUOY 41025       NOT AVBL
CAPE LOOKOUT NC  1900   49      30/ 23/ 27 1005.0R
BUOY 41002       1850   71 69  220/ 17/ 21 1007.4F  10/ 8   3/190/13
BUOY 41010       1820   77 76  220/ 17/ 21 1009.5F
ST AUGUSTINE FL  1900   73 61  240/ 11/ 18 1008.1F


$$


USA.gov is the U.S. government's official web portal to all federal, state and local government web resources and services.